sat.trackr.live / text

‹ back to catalog

STARLINK-30290

NORAD 57858 · 2023-141U

PAYLOAD ACTIVE UNKNOWN

§ Identity

Operator
Country
US
Launch date
2023-09-12
Launch site
AFWTR
Launch vehicle
Mass (kg)
RCS (m²)

Purposes: comms

External: N2YO · Heavens-Above · Gunter

§ Orbital elements

Epoch: 2026-05-25T03:02:58.016832Z

Period
94.11 min
Inclination
53.1619°
Eccentricity
0.0001224
Mean motion
15.30197933 rev/d
Perigee alt
474.4 km
Apogee alt
476.1 km
Semi-major
6,853.4 km
B*
6.4720e-5
RAAN
288.8832°
Arg perigee
106.2318°
Mean anomaly
253.8817°
Rev number
15,203

§ Raw data

STARLINK-302901 57858U 23141U   26145.12706038  .00001558  00000+0  64720-4 0  99902 57858  53.1619 288.8832 0001224 106.2318 253.8817 15.30197933152035

JSON: /api/v1/satellites/57858 · /tle

For live sub-satellite position, see the globe view (requires WebGL).

§ Visibility from observer

Set your observer location to see the next 7 days of passes ≥ 10°. The values pass through the URL so the page stays shareable.

No JS? Fill the form by hand. The geolocation button needs JavaScript.